Bigfork, MN

5:41 PM CDT on July 29, 2016 (GMT -0500)
Bigfork Municipal

Weather History for KFOZ - December, 2012

Change the Weather History Date:

Friday, December 7, 2012

  Actual Average (KGPZ) Record (KGPZ)
Temperature  
Mean Temperature 12 °F -  
Max Temperature 23 °F 23 °F 51 °F (1939)
Min Temperature 1 °F 4 °F -40 °F (1936)
Degree Days  
Heating Degree Days 53    
Moisture  
Dew Point 9 °F    
Average Humidity 75    
Maximum Humidity 86    
Minimum Humidity 58    
Precipitation  
Precipitation 0.00 in - - ()
Sea Level Pressure  
Sea Level Pressure 30.01 in    
Wind  
Wind Speed 3 mph (NW)    
Max Wind Speed 7 mph    
Max Gust Speed -    
Visibility 10 miles    
Events Snow    
Averages and records for this station are not official NWS values.
T = Trace of Precipitation, MM = Missing Value Source: NWS Daily Summary

Daily Weather History Graph

Daily Weather History Graph

Search for Another Location

Airport or City:

Trip Planner

Search our weather history database for the weather conditions in past years. The results will help you decide how hot, cold, wet, or windy it might be!

Date:

Astronomy

Dec. 07, 2012 Rise Set
Actual Time 7:50 AM CST 4:22 PM CST
Civil Twilight 7:14 AM CST 4:58 PM CST
Nautical Twilight 6:35 AM CST 5:37 PM CST
Astronomical Twilight 5:57 AM CST 6:14 PM CST
Moon 12:45 AM CST (12/7) 12:42 PM CST (12/7)
Length of Visible Light 9h 44m
Length of Day
8h 32m
Last Quarter, 38% of the Moon is Illuminated
Dec 7
Last Quarter
Dec 13
New
Dec 19
First Quarter
Dec 28
Full
Jan 4
Last Quarter

Hourly Weather History & Observations

Time (CST) Temp. Windchill Dew Point Humidity Pressure Visibility Wind Dir Wind Speed Gust Speed Precip Events Conditions
12:13 AM 21.2 °F 14.9 °F 15.8 °F 80% 29.95 in 10.0 mi West 4.6 mph - N/A Snow Light Snow
12:33 AM 21.2 °F - 15.8 °F 80% 29.94 in 10.0 mi Calm Calm - N/A Snow Light Snow
12:53 AM 21.2 °F - 15.8 °F 80% 29.94 in 10.0 mi Calm Calm - N/A Snow Light Snow
1:13 AM 21.2 °F - 15.8 °F 80% 29.93 in 10.0 mi Calm Calm - N/A   Overcast
1:33 AM 21.2 °F - 15.8 °F 80% 29.93 in 10.0 mi Calm Calm - N/A Snow Light Snow
1:53 AM 21.2 °F - 15.8 °F 80% 29.94 in 10.0 mi Calm Calm - N/A   Overcast
2:13 AM 21.2 °F - 17.6 °F 86% 29.94 in 10.0 mi Calm Calm - N/A   Overcast
2:33 AM 23.0 °F - 17.6 °F 80% 29.94 in 10.0 mi Calm Calm - N/A   Overcast
2:53 AM 23.0 °F - 17.6 °F 80% 29.94 in 10.0 mi Calm Calm - N/A   Overcast
3:13 AM 23.0 °F 17.0 °F 17.6 °F 80% 29.94 in 10.0 mi WSW 4.6 mph - N/A   Overcast
3:33 AM 23.0 °F 15.8 °F 15.8 °F 74% 29.94 in 10.0 mi West 5.8 mph - N/A   Overcast
3:53 AM 23.0 °F 15.8 °F 15.8 °F 74% 29.94 in 10.0 mi WSW 5.8 mph - N/A   Overcast
4:13 AM 21.2 °F 12.6 °F 15.8 °F 80% 29.94 in 10.0 mi WSW 6.9 mph - N/A   Overcast
4:33 AM 23.0 °F 14.7 °F 15.8 °F 74% 29.94 in 10.0 mi WSW 6.9 mph - N/A   Overcast
4:53 AM 21.2 °F 13.6 °F 15.8 °F 80% 29.94 in 10.0 mi West 5.8 mph - N/A   Overcast
5:13 AM 21.2 °F 14.9 °F 14.0 °F 74% 29.94 in 10.0 mi West 4.6 mph - N/A   Overcast
5:33 AM 21.2 °F 13.6 °F 14.0 °F 74% 29.95 in 10.0 mi West 5.8 mph - N/A   Overcast
5:53 AM 21.2 °F 13.6 °F 14.0 °F 74% 29.95 in 10.0 mi West 5.8 mph - N/A   Overcast
6:13 AM 21.2 °F 16.4 °F 14.0 °F 74% 29.96 in 10.0 mi West 3.5 mph - N/A   Overcast
6:33 AM 21.2 °F 14.9 °F 14.0 °F 74% 29.96 in 10.0 mi West 4.6 mph - N/A   Overcast
6:53 AM 21.2 °F 14.9 °F 14.0 °F 74% 29.97 in 10.0 mi West 4.6 mph - N/A   Overcast
7:13 AM 21.2 °F 16.4 °F 14.0 °F 74% 29.97 in 10.0 mi WNW 3.5 mph - N/A   Overcast
7:33 AM 19.4 °F - 12.2 °F 74% 29.97 in 10.0 mi Calm Calm - N/A   Overcast
7:53 AM 19.4 °F 12.8 °F 12.2 °F 74% 29.98 in 10.0 mi NW 4.6 mph - N/A   Overcast
8:13 AM 19.4 °F 14.3 °F 12.2 °F 74% 29.98 in 10.0 mi NNW 3.5 mph - N/A   Overcast
8:33 AM 19.4 °F 14.3 °F 12.2 °F 74% 29.98 in 10.0 mi North 3.5 mph - N/A   Overcast
8:53 AM 19.4 °F - 12.2 °F 74% 30.00 in 10.0 mi Calm Calm - N/A   Overcast
9:13 AM 19.4 °F 14.3 °F 12.2 °F 74% 30.00 in 10.0 mi NNW 3.5 mph - N/A   Mostly Cloudy
9:33 AM 19.4 °F 14.3 °F 12.2 °F 74% 30.01 in 10.0 mi NNW 3.5 mph - N/A   Scattered Clouds
9:53 AM 19.4 °F 14.3 °F 10.4 °F 68% 30.01 in 10.0 mi NW 3.5 mph - N/A   Scattered Clouds
10:13 AM 19.4 °F 14.3 °F 10.4 °F 68% 30.02 in 10.0 mi WNW 3.5 mph - N/A   Clear
10:33 AM 19.4 °F 12.8 °F 10.4 °F 68% 30.03 in 10.0 mi NNW 4.6 mph - N/A   Scattered Clouds
10:53 AM 19.4 °F 11.5 °F 10.4 °F 68% 30.04 in 10.0 mi NW 5.8 mph - N/A   Mostly Cloudy
11:13 AM 19.4 °F 14.3 °F 10.4 °F 68% 30.03 in 10.0 mi NNW 3.5 mph - N/A   Scattered Clouds
11:33 AM 19.4 °F - 10.4 °F 68% 30.03 in 10.0 mi Calm Calm - N/A   Clear
11:53 AM 19.4 °F 12.8 °F 10.4 °F 68% 30.03 in 10.0 mi NNW 4.6 mph - N/A   Scattered Clouds
12:13 PM 19.4 °F 11.5 °F 10.4 °F 68% 30.02 in 10.0 mi North 5.8 mph - N/A   Scattered Clouds
12:33 PM 19.4 °F 12.8 °F 10.4 °F 68% 30.01 in 10.0 mi NNW 4.6 mph - N/A   Clear
12:54 PM 19.4 °F 12.8 °F 8.6 °F 63% 30.02 in 10.0 mi NNW 4.6 mph - N/A   Clear
1:13 PM 19.4 °F 12.8 °F 8.6 °F 63% 30.02 in 10.0 mi NNW 4.6 mph - N/A   Clear
1:33 PM 19.4 °F 11.5 °F 8.6 °F 63% 30.02 in 10.0 mi WNW 5.8 mph - N/A   Clear
1:53 PM 19.4 °F 14.3 °F 8.6 °F 63% 30.02 in 10.0 mi North 3.5 mph - N/A   Clear
2:13 PM 19.4 °F 14.3 °F 8.6 °F 63% 30.02 in 10.0 mi NW 3.5 mph - N/A   Clear
2:33 PM 19.4 °F 14.3 °F 6.8 °F 58% 30.02 in 10.0 mi WNW 3.5 mph - N/A   Clear
2:53 PM 19.4 °F - 6.8 °F 58% 30.03 in 10.0 mi Calm Calm - N/A   Clear
3:13 PM 19.4 °F 14.3 °F 6.8 °F 58% 30.04 in 10.0 mi NW 3.5 mph - N/A   Clear
3:33 PM 17.6 °F - 8.6 °F 68% 30.04 in 10.0 mi Calm Calm - N/A   Clear
3:53 PM 17.6 °F - 6.8 °F 63% 30.04 in 10.0 mi Calm Calm - N/A   Clear
4:13 PM 17.6 °F - 6.8 °F 63% 30.04 in 10.0 mi Calm Calm - N/A   Clear
4:33 PM 15.8 °F - 6.8 °F 68% 30.04 in 10.0 mi Calm Calm - N/A   Clear
4:53 PM 14.0 °F - 6.8 °F 73% 30.04 in 10.0 mi Calm Calm - N/A   Clear
5:13 PM 12.2 °F - 6.8 °F 79% 30.05 in 10.0 mi Calm Calm - N/A   Clear
5:33 PM 10.4 °F - 5.0 °F 79% 30.05 in 10.0 mi Calm Calm - N/A   Clear
5:53 PM 8.6 °F - 5.0 °F 85% 30.05 in 10.0 mi Calm Calm - N/A   Clear
6:13 PM 10.4 °F 4.0 °F 5.0 °F 79% 30.05 in 10.0 mi North 3.5 mph - N/A   Clear
6:33 PM 10.4 °F - 5.0 °F 79% 30.05 in 10.0 mi Calm Calm - N/A   Clear
6:53 PM 10.4 °F 4.0 °F 5.0 °F 79% 30.05 in 10.0 mi North 3.5 mph - N/A   Clear
7:13 PM 10.4 °F 4.0 °F 5.0 °F 79% 30.05 in 10.0 mi North 3.5 mph - N/A   Clear
7:33 PM 10.4 °F 0.8 °F 5.0 °F 79% 30.05 in 10.0 mi North 5.8 mph - N/A   Clear
7:53 PM 10.4 °F 2.2 °F 5.0 °F 79% 30.05 in 10.0 mi North 4.6 mph - N/A   Clear
8:13 PM 10.4 °F 2.2 °F 3.2 °F 73% 30.05 in 10.0 mi North 4.6 mph - N/A   Clear
8:33 PM 8.6 °F - 3.2 °F 79% 30.05 in 10.0 mi Calm Calm - N/A   Clear
8:53 PM 6.8 °F - 3.2 °F 85% 30.05 in 10.0 mi Calm Calm - N/A   Clear
9:13 PM 6.8 °F - 3.2 °F 85% 30.05 in 10.0 mi Calm Calm - N/A   Clear
9:33 PM 6.8 °F - 1.4 °F 79% 30.05 in 10.0 mi Calm Calm - N/A   Clear
9:53 PM 5.0 °F - 1.4 °F 85% 30.05 in 10.0 mi Calm Calm - N/A   Clear
10:13 PM 3.2 °F - -0.4 °F 85% 30.05 in 10.0 mi Calm Calm - N/A   Clear
10:33 PM 3.2 °F - -0.4 °F 85% 30.05 in 10.0 mi Calm Calm - N/A   Clear
10:53 PM 1.4 °F - -2.2 °F 85% 30.05 in 10.0 mi Calm Calm - N/A   Clear
11:13 PM 1.4 °F - -2.2 °F 85% 30.06 in 10.0 mi Calm Calm - N/A   Clear
11:33 PM 1.4 °F - -2.2 °F 85% 30.06 in 10.0 mi Calm Calm - N/A   Clear
11:53 PM 1.4 °F - -4.0 °F 78% 30.06 in 10.0 mi Calm Calm - N/A   Clear